HG8LXL-2 Weather Reports


time (UTC)temp
C
wind
direction
speed
KPH
gust
KPH
rain 1hr
cm
rain 24hr
cm
rain mn
cm
humidity
%
barometer
mb
20260507210504 22 0.0 0.0 0.00 0.00 0.00 65 1012.1
20260507210004 22 0.0 0.0 0.00 0.00 0.00 64 1012.1
20260507205504 22 0.0 0.0 0.00 0.00 0.00 65 1012.0
20260507205004 22 0.0 0.0 0.00 0.00 0.00 64 1012.0
20260507204504 22 0.0 0.0 0.00 0.00 0.00 63 1012.0
20260507204006 22 0.0 0.0 0.00 0.00 0.00 63 1012.0
20260507203504 22 0.0 0.0 0.00 0.00 0.00 64 1012.0
20260507203004 22 0.0 0.0 0.00 0.00 0.00 65 1012.0
20260507202504 22 0.0 0.0 0.00 0.00 0.00 67 1011.9
20260507202004 22 0.0 0.0 0.00 0.00 0.00 66 1011.8
20260507201504 22 0.0 0.0 0.00 0.00 0.00 66 1011.8
20260507201004 22 0.0 0.0 0.00 0.00 0.00 66 1011.8
20260507200504 22 0.0 0.0 0.00 0.00 0.00 67 1011.8
20260507200004 22 0.0 0.0 0.00 0.00 0.00 67 1011.8
20260507195504 22 0.0 0.0 0.00 0.00 0.00 67 1011.8
20260507195004 22 0.0 0.0 0.00 0.00 0.00 69 1011.8
20260507194504 22 0.0 0.0 0.00 0.00 0.00 67 1011.8
20260507194004 22 0.0 0.0 0.00 0.00 0.00 66 1011.9
20260507193504 22 0.0 0.0 0.00 0.00 0.00 65 1011.7
20260507193004 22 0.0 0.0 0.00 0.00 0.00 64 1011.6
20260507192504 22 0.0 0.0 0.00 0.00 0.00 63 1011.6
20260507192004 22 0.0 0.0 0.00 0.00 0.00 63 1011.6
20260507191504 22 0.0 0.0 0.00 0.00 0.00 64 1011.5
20260507191004 22 0.0 0.0 0.00 0.00 0.00 65 1011.5
20260507190504 22 0.0 0.0 0.00 0.00 0.00 65 1011.5
20260507190005 22 0.0 0.0 0.00 0.00 0.00 64 1011.4
20260507185504 22 0.0 0.0 0.00 0.00 0.00 63 1011.3
20260507185004 23 0.0 0.0 0.00 0.00 0.00 61 1011.2
20260507184504 22 0.0 0.0 0.00 0.00 0.00 63 1011.2
20260507184004 22 0.0 0.0 0.00 0.00 0.00 63 1011.1
20260507183504 23 0.0 0.0 0.00 0.00 0.00 63 1011.1
20260507183004 23 0.0 0.0 0.00 0.00 0.00 62 1011.0
20260507182504 22 0.0 0.0 0.00 0.00 0.00 63 1011.0
20260507182004 22 0.0 0.0 0.00 0.00 0.00 62 1011.0
20260507181504 23 0.0 0.0 0.00 0.00 0.00 62 1011.0
20260507181004 22 0.0 0.0 0.00 0.00 0.00 63 1010.9
20260507180504 22 0.0 0.0 0.00 0.00 0.00 64 1010.9
20260507180004 22 0.0 0.0 0.00 0.00 0.00 64 1010.9
20260507175504 22 0.0 0.0 0.00 0.00 0.00 64 1010.8
20260507175004 22 0.0 0.0 0.00 0.00 0.00 64 1010.8
20260507174504 22 0.0 0.0 0.00 0.00 0.00 65 1010.8
20260507174004 22 0.0 0.0 0.00 0.00 0.00 63 1010.7
20260507173504 22 0.0 0.0 0.00 0.00 0.00 65 1010.8
20260507173004 22 0.0 0.0 0.00 0.00 0.00 65 1010.8
20260507172504 22 0.0 0.0 0.00 0.00 0.00 66 1010.7
20260507172004 22 0.0 0.0 0.00 0.00 0.00 67 1010.8
20260507171504 23 0.0 0.0 0.00 0.00 0.00 65 1010.8
20260507171004 23 0.0 0.0 0.00 0.00 0.00 64 1010.8
20260507170504 23 0.0 0.0 0.00 0.00 0.00 64 1010.7
20260507170004 23 0.0 0.0 0.00 0.00 0.00 65 1010.8
20260507165504 23 0.0 0.0 0.00 0.00 0.00 64 1010.7
20260507165004 23 0.0 0.0 0.00 0.00 0.00 65 1010.7
20260507164504 23 0.0 0.0 0.00 0.00 0.00 66 1010.8
20260507164004 23 0.0 0.0 0.00 0.00 0.00 64 1010.7
20260507163504 23 0.0 0.0 0.00 0.00 0.00 62 1010.6
20260507163004 23 0.0 0.0 0.00 0.00 0.00 60 1010.6
20260507162504 23 0.0 0.0 0.00 0.00 0.00 61 1010.6
20260507162004 23 0.0 0.0 0.00 0.00 0.00 63 1010.7
20260507161504 23 0.0 0.0 0.00 0.00 0.00 64 1010.7
20260507161004 23 0.0 0.0 0.00 0.00 0.00 63 1010.7
20260507160504 23 0.0 0.0 0.00 0.00 0.00 63 1010.7
20260507160004 23 0.0 0.0 0.00 0.00 0.00 64 1010.7
20260507155504 23 0.0 0.0 0.00 0.00 0.00 63 1010.8
20260507155004 23 0.0 0.0 0.00 0.00 0.00 63 1010.7
20260507154504 23 0.0 0.0 0.00 0.00 0.00 61 1010.7
20260507154004 23 0.0 0.0 0.00 0.00 0.00 62 1010.7
20260507153505 23 0.0 0.0 0.00 0.00 0.00 62 1010.8
20260507153004 23 0.0 0.0 0.00 0.00 0.00 64 1010.7
20260507152504 23 0.0 0.0 0.00 0.00 0.00 63 1010.8
20260507152004 23 0.0 0.0 0.00 0.00 0.00 65 1010.8
20260507151504 23 0.0 0.0 0.00 0.00 0.00 63 1010.8
20260507151004 23 0.0 0.0 0.00 0.00 0.00 62 1010.8
20260507150504 22 0.0 0.0 0.00 0.00 0.00 64 1010.8
20260507150004 23 0.0 0.0 0.00 0.00 0.00 63 1010.9
20260507145504 22 0.0 0.0 0.00 0.00 0.00 66 1010.9
20260507145004 22 0.0 0.0 0.00 0.00 0.00 67 1011.1
20260507144504 22 0.0 0.0 0.00 0.00 0.00 70 1011.1
20260507144004 22 0.0 0.0 0.00 0.00 0.00 68 1011.3
20260507143504 22 0.0 0.0 0.00 0.00 0.00 67 1011.3
20260507143004 22 0.0 0.0 0.00 0.00 0.00 67 1011.4
20260507142504 21 0.0 0.0 0.00 0.00 0.00 70 1011.5
20260507142004 21 0.0 0.0 0.00 0.00 0.00 71 1011.6
20260507141504 21 0.0 0.0 0.00 0.00 0.00 69 1011.5
20260507141004 22 0.0 0.0 0.00 0.00 0.00 69 1011.5
20260507140504 21 0.0 0.0 0.00 0.00 0.00 69 1011.5
20260507140004 22 0.0 0.0 0.00 0.00 0.00 71 1011.5
20260507135504 22 0.0 0.0 0.00 0.00 0.00 71 1011.7
20260507135004 22 0.0 0.0 0.00 0.00 0.00 69 1011.6
20260507134504 22 0.0 0.0 0.00 0.00 0.00 70 1011.5
20260507134004 21 0.0 0.0 0.00 0.00 0.00 71 1011.5
20260507133504 22 0.0 0.0 0.00 0.00 0.00 71 1011.5
20260507133004 21 0.0 0.0 0.00 0.00 0.00 72 1011.5
20260507132504 21 0.0 0.0 0.00 0.00 0.00 69 1011.4
20260507132004 22 0.0 0.0 0.00 0.00 0.00 69 1011.5
20260507131504 22 0.0 0.0 0.00 0.00 0.00 67 1011.4
20260507131004 22 0.0 0.0 0.00 0.00 0.00 64 1011.4
20260507130504 22 0.0 0.0 0.00 0.00 0.00 61 1011.4
20260507130004 22 0.0 0.0 0.00 0.00 0.00 61 1011.3
20260507125504 23 0.0 0.0 0.00 0.00 0.00 62 1011.3
20260507125004 23 0.0 0.0 0.00 0.00 0.00 62 1011.4
20260507124504 23 0.0 0.0 0.00 0.00 0.00 61 1011.5
20260507124004 22 0.0 0.0 0.00 0.00 0.00 61 1011.5
20260507123505 22 0.0 0.0 0.00 0.00 0.00 62 1011.5
20260507123004 23 0.0 0.0 0.00 0.00 0.00 61 1011.5
20260507122504 23 0.0 0.0 0.00 0.00 0.00 59 1011.5
20260507122004 23 0.0 0.0 0.00 0.00 0.00 61 1011.4
20260507121504 23 0.0 0.0 0.00 0.00 0.00 61 1011.3
20260507121004 22 0.0 0.0 0.00 0.00 0.00 64 1011.3
20260507120504 23 0.0 0.0 0.00 0.00 0.00 61 1011.2
20260507120004 23 0.0 0.0 0.00 0.00 0.00 63 1011.3
20260507115504 24 0.0 0.0 0.00 0.00 0.00 58 1011.1
20260507115004 24 0.0 0.0 0.00 0.00 0.00 63 1011.2
20260507114504 23 0.0 0.0 0.00 0.00 0.00 66 1011.3
20260507114004 22 0.0 0.0 0.00 0.00 0.00 66 1011.2
20260507113504 22 0.0 0.0 0.00 0.00 0.00 66 1011.3
20260507113004 22 0.0 0.0 0.00 0.00 0.00 67 1011.3
20260507112504 21 0.0 0.0 0.00 0.00 0.00 66 1011.4
20260507112004 22 0.0 0.0 0.00 0.00 0.00 60 1011.4
20260507111504 23 0.0 0.0 0.00 0.00 0.00 50 1011.2
20260507111003 26 0.0 0.0 0.00 0.00 0.00 39 1010.7
20260507110503 27 0.0 0.0 0.00 0.00 0.00 37 1010.5
20260507110004 28 0.0 0.0 0.00 0.00 0.00 35 1010.3
20260507105504 28 0.0 0.0 0.00 0.00 0.00 34 1010.4
20260507105004 28 0.0 0.0 0.00 0.00 0.00 35 1010.4
20260507104504 27 0.0 0.0 0.00 0.00 0.00 36 1010.5
20260507104004 28 0.0 0.0 0.00 0.00 0.00 35 1010.6
20260507103504 28 0.0 0.0 0.00 0.00 0.00 35 1010.5
20260507103004 28 0.0 0.0 0.00 0.00 0.00 35 1010.5
20260507102503 27 0.0 0.0 0.00 0.00 0.00 34 1010.6
20260507102003 27 0.0 0.0 0.00 0.00 0.00 36 1010.6
20260507101504 28 0.0 0.0 0.00 0.00 0.00 37 1010.6
20260507101003 27 0.0 0.0 0.00 0.00 0.00 39 1010.8
20260507100503 27 0.0 0.0 0.00 0.00 0.00 38 1010.8
20260507100004 26 0.0 0.0 0.00 0.00 0.00 42 1010.9
20260507095503 26 0.0 0.0 0.00 0.00 0.00 42 1011.0
20260507095003 27 0.0 0.0 0.00 0.00 0.00 40 1010.9
20260507094504 27 0.0 0.0 0.00 0.00 0.00 41 1011.0
20260507094004 25 0.0 0.0 0.00 0.00 0.00 45 1011.1
20260507093504 26 0.0 0.0 0.00 0.00 0.00 44 1011.0
20260507093004 26 0.0 0.0 0.00 0.00 0.00 45 1011.1
20260507092504 25 0.0 0.0 0.00 0.00 0.00 46 1011.1
20260507092003 24 0.0 0.0 0.00 0.00 0.00 47 1011.1
20260507091503 23 0.0 0.0 0.00 0.00 0.00 49 1011.0
20260507091003 23 0.0 0.0 0.00 0.00 0.00 49 1011.1
20260507090504 23 0.0 0.0 0.00 0.00 0.00 50 1011.0
20260507090005 23 0.0 0.0 0.00 0.00 0.00 50 1011.0
20260507085503 23 0.0 0.0 0.00 0.00 0.00 49 1011.1
20260507085003 23 0.0 0.0 0.00 0.00 0.00 48 1011.0
20260507084503 23 0.0 0.0 0.00 0.00 0.00 48 1010.9
20260507084003 23 0.0 0.0 0.00 0.00 0.00 48 1010.8
20260507083503 23 0.0 0.0 0.00 0.00 0.00 48 1010.8
20260507083004 23 0.0 0.0 0.00 0.00 0.00 47 1010.7
20260507082504 23 0.0 0.0 0.00 0.00 0.00 47 1010.7
20260507082004 23 0.0 0.0 0.00 0.00 0.00 47 1010.6
20260507081505 24 0.0 0.0 0.00 0.00 0.00 47 1010.4
20260507081003 25 0.0 0.0 0.00 0.00 0.00 47 1010.5
20260507080503 24 0.0 0.0 0.00 0.00 0.00 49 1010.4
20260507080004 25 0.0 0.0 0.00 0.00 0.00 48 1010.4
20260507075503 25 0.0 0.0 0.00 0.00 0.00 47 1010.3
20260507075003 25 0.0 0.0 0.00 0.00 0.00 49 1010.4
20260507074503 25 0.0 0.0 0.00 0.00 0.00 51 1010.4
20260507074003 24 0.0 0.0 0.00 0.00 0.00 51 1010.3
20260507073503 24 0.0 0.0 0.00 0.00 0.00 51 1010.4
20260507073004 24 0.0 0.0 0.00 0.00 0.00 54 1010.3
20260507072503 23 0.0 0.0 0.00 0.00 0.00 54 1010.5
20260507072003 23 0.0 0.0 0.00 0.00 0.00 55 1010.4
20260507071504 24 0.0 0.0 0.00 0.00 0.00 54 1010.4
20260507071003 23 0.0 0.0 0.00 0.00 0.00 56 1010.4
20260507070503 23 0.0 0.0 0.00 0.00 0.00 57 1010.4
20260507070007 23 0.0 0.0 0.00 0.00 0.00 58 1010.4
20260507065503 23 0.0 0.0 0.00 0.00 0.00 58 1010.3
20260507065004 23 0.0 0.0 0.00 0.00 0.00 59 1010.2
20260507064504 22 0.0 0.0 0.00 0.00 0.00 60 1010.3
20260507064003 22 0.0 0.0 0.00 0.00 0.00 60 1010.3
20260507063503 22 0.0 0.0 0.00 0.00 0.00 61 1010.3
20260507063004 22 0.0 0.0 0.00 0.00 0.00 61 1010.2
20260507062503 22 0.0 0.0 0.00 0.00 0.00 60 1010.2
20260507062003 23 0.0 0.0 0.00 0.00 0.00 61 1010.1
20260507061503 22 0.0 0.0 0.00 0.00 0.00 61 1010.1
20260507061003 22 0.0 0.0 0.00 0.00 0.00 61 1010.1
20260507060003 22 0.0 0.0 0.00 0.00 0.00 62 1010.0
20260507055503 21 0.0 0.0 0.00 0.00 0.00 61 1010.0
20260507055003 21 0.0 0.0 0.00 0.00 0.00 60 1010.0
20260507054503 21 0.0 0.0 0.00 0.00 0.00 59 1010.0
20260507054003 21 0.0 0.0 0.00 0.00 0.00 59 1010.0
20260507053503 22 0.0 0.0 0.00 0.00 0.00 57 1010.0
20260507053004 22 0.0 0.0 0.00 0.00 0.00 55 1009.9
20260507052503 22 0.0 0.0 0.00 0.00 0.00 54 1009.8
20260507052003 22 0.0 0.0 0.00 0.00 0.00 56 1009.8
20260507051503 22 0.0 0.0 0.00 0.00 0.00 55 1009.7
20260507051003 22 0.0 0.0 0.00 0.00 0.00 55 1009.7
20260507050503 22 0.0 0.0 0.00 0.00 0.00 56 1009.5
20260507050003 22 0.0 0.0 0.00 0.00 0.00 57 1009.6
20260507045503 22 0.0 0.0 0.00 0.00 0.00 57 1009.4
20260507045003 21 0.0 0.0 0.00 0.00 0.00 57 1009.5
20260507044503 21 0.0 0.0 0.00 0.00 0.00 58 1009.4
20260507044003 21 0.0 0.0 0.00 0.00 0.00 59 1009.3
20260507043503 21 0.0 0.0 0.00 0.00 0.00 58 1009.3
20260507043003 21 0.0 0.0 0.00 0.00 0.00 58 1009.2
20260507042503 21 0.0 0.0 0.00 0.00 0.00 58 1009.2
20260507042003 21 0.0 0.0 0.00 0.00 0.00 58 1009.2
20260507041503 21 0.0 0.0 0.00 0.00 0.00 59 1009.2
20260507041003 21 0.0 0.0 0.00 0.00 0.00 60 1009.2
20260507040503 21 0.0 0.0 0.00 0.00 0.00 60 1009.2
20260507040004 21 0.0 0.0 0.00 0.00 0.00 60 1009.2
20260507035503 21 0.0 0.0 0.00 0.00 0.00 57 1009.0
20260507035003 21 0.0 0.0 0.00 0.00 0.00 57 1008.8
20260507034503 21 0.0 0.0 0.00 0.00 0.00 57 1008.8
20260507034003 21 0.0 0.0 0.00 0.00 0.00 57 1008.7
20260507033503 21 0.0 0.0 0.00 0.00 0.00 56 1008.8
20260507033003 21 0.0 0.0 0.00 0.00 0.00 57 1008.7
20260507032504 21 0.0 0.0 0.00 0.00 0.00 57 1008.7
20260507032003 21 0.0 0.0 0.00 0.00 0.00 58 1008.7
20260507031503 21 0.0 0.0 0.00 0.00 0.00 58 1008.6
20260507031003 21 0.0 0.0 0.00 0.00 0.00 58 1008.5
20260507030503 21 0.0 0.0 0.00 0.00 0.00 58 1008.4
20260507030003 21 0.0 0.0 0.00 0.00 0.00 57 1008.5
20260507025504 21 0.0 0.0 0.00 0.00 0.00 57 1008.4
20260507025003 21 0.0 0.0 0.00 0.00 0.00 57 1008.4
20260507024503 21 0.0 0.0 0.00 0.00 0.00 57 1008.5
20260507024003 21 0.0 0.0 0.00 0.00 0.00 57 1008.3
20260507023503 21 0.0 0.0 0.00 0.00 0.00 56 1008.3
20260507023003 21 0.0 0.0 0.00 0.00 0.00 56 1008.3
20260507022513 21 0.0 0.0 0.00 0.00 0.00 57 1008.4
20260507022003 22 0.0 0.0 0.00 0.00 0.00 56 1008.3
20260507021503 21 0.0 0.0 0.00 0.00 0.00 56 1008.4
20260507021003 21 0.0 0.0 0.00 0.00 0.00 56 1008.3
20260507020503 22 0.0 0.0 0.00 0.00 0.00 56 1008.3
20260507020003 21 0.0 0.0 0.00 0.00 0.00 56 1008.2
20260507015503 21 0.0 0.0 0.00 0.00 0.00 55 1008.3
20260507015004 21 0.0 0.0 0.00 0.00 0.00 55 1008.2
20260507014503 21 0.0 0.0 0.00 0.00 0.00 56 1008.2
20260507014003 21 0.0 0.0 0.00 0.00 0.00 57 1008.1
20260507013503 21 0.0 0.0 0.00 0.00 0.00 55 1008.2
20260507013003 21 0.0 0.0 0.00 0.00 0.00 56 1008.2
20260507012504 21 0.0 0.0 0.00 0.00 0.00 56 1008.2
20260507012003 22 0.0 0.0 0.00 0.00 0.00 55 1008.0
20260507011503 22 0.0 0.0 0.00 0.00 0.00 54 1007.9
20260507011003 22 0.0 0.0 0.00 0.00 0.00 53 1007.8
20260507010503 22 0.0 0.0 0.00 0.00 0.00 53 1007.8
20260507010003 22 0.0 0.0 0.00 0.00 0.00 52 1007.7
20260507005503 22 0.0 0.0 0.00 0.00 0.00 52 1007.6
20260507005003 21 0.0 0.0 0.00 0.00 0.00 53 1007.6
20260507004503 22 0.0 0.0 0.00 0.00 0.00 52 1007.5
20260507004003 22 0.0 0.0 0.00 0.00 0.00 50 1007.6
20260507003503 22 0.0 0.0 0.00 0.00 0.00 49 1007.7
20260507003003 22 0.0 0.0 0.00 0.00 0.00 45 1007.8
20260507002503 22 0.0 0.0 0.00 0.00 0.00 44 1007.9
20260507002003 22 0.0 0.0 0.00 0.00 0.00 43 1007.9
20260507001503 22 0.0 0.0 0.00 0.00 0.00 44 1007.9
20260507001003 22 0.0 0.0 0.00 0.00 0.00 44 1007.8
20260507000503 22 0.0 0.0 0.00 0.00 0.00 45 1007.8
20260507000003 21 0.0 0.0 0.00 0.00 0.00 45 1007.8
20260506235503 22 0.0 0.0 0.00 0.00 0.00 44 1007.8
20260506235003 22 0.0 0.0 0.00 0.00 0.00 43 1007.9
20260506234503 22 0.0 0.0 0.00 0.00 0.00 43 1007.9
20260506234003 21 0.0 0.0 0.00 0.00 0.00 44 1008.0
20260506233503 21 0.0 0.0 0.00 0.00 0.00 44 1008.0
20260506233003 22 0.0 0.0 0.00 0.00 0.00 43 1008.0
20260506232503 22 0.0 0.0 0.00 0.00 0.00 42 1008.1
20260506232003 21 0.0 0.0 0.00 0.00 0.00 44 1008.2
20260506231504 21 0.0 0.0 0.00 0.00 0.00 44 1008.2
20260506231003 21 0.0 0.0 0.00 0.00 0.00 45 1008.3
20260506230503 21 0.0 0.0 0.00 0.00 0.00 44 1008.4
20260506230003 21 0.0 0.0 0.00 0.00 0.00 44 1008.5
20260506225503 21 0.0 0.0 0.00 0.00 0.00 43 1008.5
20260506225003 21 0.0 0.0 0.00 0.00 0.00 44 1008.5
20260506224503 21 0.0 0.0 0.00 0.00 0.00 43 1008.5
20260506224003 21 0.0 0.0 0.00 0.00 0.00 44 1008.5
20260506223503 21 0.0 0.0 0.00 0.00 0.00 43 1008.4
20260506223003 21 0.0 0.0 0.00 0.00 0.00 43 1008.5
20260506222503 21 0.0 0.0 0.00 0.00 0.00 43 1008.5
20260506222004 21 0.0 0.0 0.00 0.00 0.00 43 1008.3
20260506221504 21 0.0 0.0 0.00 0.00 0.00 43 1008.3
20260506221003 21 0.0 0.0 0.00 0.00 0.00 43 1008.2
20260506220503 20 0.0 0.0 0.00 0.00 0.00 44 1008.2
20260506220003 21 0.0 0.0 0.00 0.00 0.00 42 1007.9
20260506215503 21 0.0 0.0 0.00 0.00 0.00 42 1007.8
20260506215003 21 0.0 0.0 0.00 0.00 0.00 41 1007.8
20260506214503 22 0.0 0.0 0.00 0.00 0.00 40 1007.7
20260506214003 21 0.0 0.0 0.00 0.00 0.00 40 1007.6
20260506213503 22 0.0 0.0 0.00 0.00 0.00 39 1007.6
20260506213003 22 0.0 0.0 0.00 0.00 0.00 38 1007.5
20260506212503 22 0.0 0.0 0.00 0.00 0.00 38 1007.4
20260506212003 22 0.0 0.0 0.00 0.00 0.00 37 1007.5
20260506211503 22 0.0 0.0 0.00 0.00 0.00 38 1007.5
20260506211003 22 0.0 0.0 0.00 0.00 0.00 37 1007.5